• In Hungary
  • List of Countries
  • For 7 days
  • Water Temperature
  • Satellite Maps
  • Weather Map
  • News
  • Weather Widgets
  • user-avatar
    Login

    Hourly Weather Klagenfurt

    Today, 26 September, Tuesday

    Time Temperature Precipitation Wind Pressure Humidity
    00:00 +8°C° 0 mm 1 mps 693 mmHg 96%
    01:00 +8°C° 0 mm 1 mps 693 mmHg 96%
    02:00 +8°C° 0 mm 1 mps 693 mmHg 96%
    03:00 +8°C° 0 mm 1 mps 693 mmHg 96%
    04:00 +7°C° 0 mm 1 mps 692 mmHg 95%
    05:00 +8°C° 0.1 mm 1 mps 693 mmHg 94%
    06:00 +8°C° 0.1 mm 1 mps 693 mmHg 93%
    07:00 +8°C° 0.1 mm 1 mps 693 mmHg 92%
    08:00 +10°C° 0.3 mm 1 mps 693 mmHg 89%
    09:00 +11°C° 0.3 mm 1 mps 693 mmHg 85%
    10:00 +12°C° 0.3 mm 1 mps 694 mmHg 81%
    11:00 +12°C° 0.3 mm 1 mps 694 mmHg 82%
    12:00 +12°C° 0.3 mm 1 mps 693 mmHg 83%
    13:00 +12°C° 0.3 mm 1 mps 693 mmHg 84%
    14:00 +12°C° 0.2 mm 1 mps 693 mmHg 85%
    15:00 +12°C° 0.2 mm 1 mps 693 mmHg 86%
    16:00 +12°C° 0.2 mm 1 mps 693 mmHg 87%
    17:00 +11°C° 0 mm 1 mps 694 mmHg 88%
    18:00 +11°C° 0 mm 1 mps 694 mmHg 90%
    19:00 +10°C° 0 mm 1 mps 694 mmHg 92%
    20:00 +10°C° 0.1 mm 1 mps 694 mmHg 92%
    21:00 +9°C° 0.1 mm 1 mps 694 mmHg 93%
    22:00 +9°C° 0.1 mm 1 mps 694 mmHg 93%
    23:00 +9°C° 0.1 mm 1 mps 694 mmHg 93%

    Tomorrow, 27 September, Wednesday

    Time Temperature Precipitation Wind Pressure Humidity
    00:00 +9°C° 0.1 mm 1 mps 694 mmHg 94%
    01:00 +9°C° 0.1 mm 1 mps 694 mmHg 94%
    02:00 +9°C° 0 mm 1 mps 694 mmHg 94%
    03:00 +9°C° 0 mm 1 mps 694 mmHg 94%
    04:00 +9°C° 0 mm 1 mps 694 mmHg 94%
    05:00 +9°C° 0 mm 1 mps 694 mmHg 93%
    06:00 +10°C° 0 mm 1 mps 695 mmHg 93%
    07:00 +10°C° 0 mm 1 mps 695 mmHg 92%
    08:00 +12°C° 0 mm 1 mps 695 mmHg 86%
    09:00 +14°C° 0 mm 1 mps 696 mmHg 80%
    10:00 +15°C° 0 mm 1 mps 696 mmHg 74%
    11:00 +16°C° 0.1 mm 2 mps 696 mmHg 72%
    12:00 +16°C° 0.1 mm 2 mps 696 mmHg 71%
    13:00 +17°C° 0.1 mm 2 mps 696 mmHg 69%
    14:00 +16°C° 0.1 mm 2 mps 696 mmHg 70%
    15:00 +16°C° 0.1 mm 2 mps 696 mmHg 71%
    16:00 +16°C° 0.1 mm 1 mps 696 mmHg 73%
    17:00 +14°C° 0 mm 1 mps 696 mmHg 79%
    18:00 +13°C° 0 mm 1 mps 695 mmHg 86%
    19:00 +11°C° 0 mm 1 mps 695 mmHg 92%
    20:00 +11°C° 0 mm 1 mps 696 mmHg 93%
    21:00 +10°C° 0 mm 1 mps 696 mmHg 93%
    22:00 +10°C° 0 mm 1 mps 696 mmHg 94%
    23:00 +10°C° 0 mm 1 mps 696 mmHg 94%

    Day after tomorrow, 28 September, Thursday

    Time Temperature Precipitation Wind Pressure Humidity
    00:00 +9°C° 0 mm 1 mps 696 mmHg 95%
    01:00 +9°C° 0 mm 1 mps 696 mmHg 95%
    02:00 +9°C° 0 mm 1 mps 696 mmHg 95%
    03:00 +9°C° 0 mm 1 mps 696 mmHg 95%
    04:00 +8°C° 0 mm 1 mps 696 mmHg 95%
    05:00 +9°C° 0 mm 1 mps 696 mmHg 94%
    06:00 +9°C° 0 mm 1 mps 696 mmHg 93%
    07:00 +9°C° 0 mm 1 mps 697 mmHg 93%
    08:00 +12°C° 0 mm 1 mps 697 mmHg 82%
    09:00 +14°C° 0 mm 1 mps 697 mmHg 71%
    10:00 +16°C° 0 mm 1 mps 698 mmHg 61%
    11:00 +17°C° 0 mm 2 mps 698 mmHg 57%
    12:00 +18°C° 0 mm 2 mps 698 mmHg 54%
    13:00 +18°C° 0 mm 2 mps 698 mmHg 50%
    14:00 +18°C° 0 mm 2 mps 697 mmHg 54%
    15:00 +17°C° 0 mm 2 mps 697 mmHg 57%
    16:00 +17°C° 0 mm 2 mps 697 mmHg 60%
    17:00 +15°C° 0 mm 1 mps 697 mmHg 68%
    18:00 +12°C° 0 mm 1 mps 697 mmHg 77%
    19:00 +10°C° 0 mm 1 mps 696 mmHg 86%
    20:00 +10°C° 0 mm 1 mps 697 mmHg 87%
    21:00 +9°C° 0 mm 1 mps 697 mmHg 88%
    22:00 +9°C° 0 mm 1 mps 697 mmHg 89%
    23:00 +8°C° 0 mm 1 mps 697 mmHg 90%

    29 September, Friday

    Time Temperature Precipitation Wind Pressure Humidity
    00:00 +8°C° 0 mm 1 mps 696 mmHg 90%
    01:00 +8°C° 0 mm 1 mps 696 mmHg 91%
    02:00 +8°C° 0 mm 1 mps 696 mmHg 91%
    03:00 +7°C° 0 mm 1 mps 696 mmHg 91%
    04:00 +7°C° 0 mm 1 mps 695 mmHg 91%
    05:00 +8°C° 0 mm 1 mps 696 mmHg 90%
    06:00 +8°C° 0 mm 1 mps 696 mmHg 88%
    07:00 +8°C° 0 mm 1 mps 696 mmHg 86%
    08:00 +11°C° 0 mm 1 mps 696 mmHg 76%
    09:00 +13°C° 0 mm 1 mps 697 mmHg 66%
    10:00 +16°C° 0 mm 1 mps 697 mmHg 55%
    11:00 +16°C° 0 mm 1 mps 697 mmHg 54%
    12:00 +17°C° 0 mm 2 mps 696 mmHg 52%
    13:00 +18°C° 0 mm 2 mps 696 mmHg 51%
    14:00 +17°C° 0 mm 2 mps 696 mmHg 54%
    15:00 +16°C° 0 mm 2 mps 696 mmHg 57%
    16:00 +16°C° 0 mm 2 mps 695 mmHg 60%
    17:00 +14°C° 0 mm 1 mps 695 mmHg 68%
    18:00 +12°C° 0 mm 1 mps 695 mmHg 76%
    19:00 +9°C° 0 mm 1 mps 695 mmHg 84%
    20:00 +9°C° 0 mm 1 mps 695 mmHg 86%
    21:00 +8°C° 0 mm 1 mps 695 mmHg 87%
    22:00 +8°C° 0 mm 1 mps 695 mmHg 88%
    23:00 +7°C° 0 mm 1 mps 695 mmHg 89%

    30 September, Saturday

    Time Temperature Precipitation Wind Pressure Humidity
    00:00 +7°C° 0 mm 1 mps 695 mmHg 89%
    01:00 +7°C° 0 mm 1 mps 694 mmHg 90%
    02:00 +6°C° 0 mm 1 mps 694 mmHg 90%
    03:00 +6°C° 0 mm 1 mps 694 mmHg 90%
    04:00 +6°C° 0 mm 1 mps 694 mmHg 91%
    05:00 +6°C° 0 mm 1 mps 694 mmHg 89%
    06:00 +7°C° 0 mm 1 mps 694 mmHg 87%
    07:00 +7°C° 0 mm 1 mps 694 mmHg 86%
    08:00 +10°C° 0 mm 1 mps 694 mmHg 75%
    09:00 +12°C° 0 mm 1 mps 694 mmHg 64%
    10:00 +14°C° 0 mm 1 mps 695 mmHg 54%
    11:00 +15°C° 0 mm 1 mps 694 mmHg 52%
    12:00 +16°C° 0 mm 2 mps 694 mmHg 50%
    13:00 +16°C° 0 mm 2 mps 694 mmHg 48%
    14:00 +16°C° 0 mm 2 mps 694 mmHg 50%
    15:00 +15°C° 0 mm 2 mps 693 mmHg 53%
    16:00 +15°C° 0 mm 1 mps 693 mmHg 56%
    17:00 +13°C° 0 mm 1 mps 693 mmHg 65%
    18:00 +10°C° 0 mm 1 mps 692 mmHg 73%
    19:00 +8°C° 0 mm 1 mps 692 mmHg 82%
    20:00 +8°C° 0 mm 1 mps 692 mmHg 83%
    21:00 +7°C° 0 mm 1 mps 692 mmHg 84%
    22:00 +7°C° 0 mm 1 mps 692 mmHg 85%
    23:00 +6°C° 0 mm 1 mps 692 mmHg 86%

    1 October, Sunday

    Time Temperature Precipitation Wind Pressure Humidity
    00:00 +6°C° 0 mm 1 mps 692 mmHg 87%
    01:00 +5°C° 0 mm 0 mps 692 mmHg 87%
    02:00 +5°C° 0 mm 0 mps 692 mmHg 87%
    03:00 +4°C° 0 mm 0 mps 692 mmHg 88%
    04:00 +4°C° 0 mm 0 mps 692 mmHg 88%
    05:00 +5°C° 0 mm 0 mps 692 mmHg 87%
    06:00 +6°C° 0 mm 1 mps 692 mmHg 85%
    07:00 +6°C° 0 mm 1 mps 692 mmHg 84%
    08:00 +9°C° 0 mm 1 mps 693 mmHg 74%
    09:00 +11°C° 0 mm 1 mps 693 mmHg 64%
    10:00 +14°C° 0 mm 1 mps 694 mmHg 54%
    11:00 +15°C° 0 mm 1 mps 694 mmHg 52%
    12:00 +16°C° 0 mm 2 mps 694 mmHg 50%
    13:00 +16°C° 0 mm 2 mps 694 mmHg 47%
    14:00 +16°C° 0 mm 2 mps 694 mmHg 50%
    15:00 +15°C° 0 mm 1 mps 693 mmHg 53%
    16:00 +15°C° 0 mm 1 mps 693 mmHg 56%
    17:00 +12°C° 0 mm 1 mps 693 mmHg 65%
    18:00 +10°C° 0 mm 1 mps 693 mmHg 74%
    19:00 +7°C° 0 mm 1 mps 693 mmHg 83%
    20:00 +7°C° 0 mm 1 mps 693 mmHg 84%
    21:00 +6°C° 0 mm 1 mps 693 mmHg 85%
    22:00 +6°C° 0 mm 1 mps 693 mmHg 86%
    23:00 +6°C° 0 mm 1 mps 693 mmHg 86%
    Show more